Regional Weather Roundup
Issued by NWS Wilmington, NC

Home | Current Version | Previous Version | Text Only | Print | Product List | Glossary On
Versions: 1 2 3 4 5 6 7 8 9 10 11 12 13 14 15 16 17 18 19 20 21 22 23 24 25 26 27
000
ASUS42 KILM 291512
RWRILM
RWRILM
REGIONAL HOURLY WEATHER ROUNDUP
NATIONAL WEATHER SERVICE WILMINGTON NC
1100 AM EDT WED MAR 29 2017

NOTE: "FAIR" INDICATES FEW OR NO CLOUDS BELOW 12,000 FEET WITH NO
SIGNIFICANT WEATHER AND/OR OBSTRUCTIONS TO VISIBILITY.

...............WFO WILMINGTON COUNTY WARNING AREA...............

......COASTAL NC AND SC COUNTIES......

CITY           SKY/WX    TMP DP  RH WIND       PRES   REMARKS
WILMINGTON     PTSUNNY   73  58  59 NE9       30.04
N MYRTLE BEACH SUNNY     74  55  51 NE7       30.03
MYRTLE BEACH   SUNNY     73  55  53 N9        30.03

......INLAND NC AND SC COUNTIES.......

CITY           SKY/WX    TMP DP  RH WIND       PRES   REMARKS
LUMBERTON      SUNNY     70  57  63 NE12      30.05
ELIZABETHTOWN  SUNNY     70  58  65 N5        30.06R
WHITEVILLE     SUNNY     71  57  61 NE10      30.04R
FLORENCE       SUNNY     71  56  58 NE6       30.05
DARLINGTON     SUNNY     71  56  58 E10       30.07
KINGSTREE      FAIR      72  50  46 NE3       30.04S
HARTSVILLE     FAIR      70  54  56 NE8       30.07R
BENNETTSVILLE  FAIR      72  59  64 NE9G16    30.06R
CONWAY         FAIR      72  54  53 NE6       30.04R
GEORGETOWN     FAIR      73  54  49 CALM      30.04R
MARION         FAIR      68  55  64 NE8       30.05R

....................REST OF NORTH CAROLINA......................

.........EASTERN NC.........

CITY           SKY/WX    TMP DP  RH WIND       PRES   REMARKS
CAPE HATTERAS  CLOUDY    55  48  77 NE12G25   30.06
JACKSONVILLE   CLOUDY    65  58  78 NE15      30.07
MOREHEAD CITY  CLOUDY    61  58  90 N15G23    30.06
KENANSVILLE    MOSUNNY   68  57  68 NE7       30.07R
NEW BERN       CLOUDY    61  56  83 NE16G22   30.08R
ELIZABETH CITY MOSUNNY   62  50  64 NE14      30.08

.........CENTRAL NC.........

CITY           SKY/WX    TMP DP  RH WIND       PRES   REMARKS
RALEIGH DURHAM PTSUNNY   67  52  58 NE13      30.10
ROCKY MOUNT    PTSUNNY   65  54  67 NE14G20   30.09R
ROANOKE RAPIDS NOT AVBL
FAYETTEVILLE   SUNNY     71  56  58 N14       30.06
HOFFMAN        SUNNY     70  55  59 NE8       30.07

.........WESTERN NC.........

CITY           SKY/WX    TMP DP  RH WIND       PRES   REMARKS
CHARLOTTE      MOSUNNY   70  50  49 NE12      30.10
GREENSBORO     PTSUNNY   65  53  65 E12       30.10
HICKORY        NOT AVBL
BOONE          NOT AVBL
ASHEVILLE      NOT AVBL

.....................REST OF SOUTH CAROLINA.....................

.........EASTERN SC.........

CITY           SKY/WX    TMP DP  RH WIND       PRES   REMARKS
CHARLESTON     MOSUNNY   76  54  46 E6        30.03
BEAUFORT MCAS  SUNNY     74  58  57 VRB5      30.04
HILTON HEAD    SUNNY     73  57  56 NE7       30.05

.........CENTRAL SC.........

CITY           SKY/WX    TMP DP  RH WIND       PRES   REMARKS
COLUMBIA       MOSUNNY   73  51  46 NE8       30.06
ORANGEBURG     SUNNY     73  53  49 VRB3      30.06
SUMTER SHAW    SUNNY     72  53  51 CALM      30.04

.........WESTERN SC.........

CITY           SKY/WX    TMP DP  RH WIND       PRES   REMARKS
GREENVILLE     NOT AVBL
ROCK HILL      SUNNY     70  51  51 NE6       30.10
ANDERSON       SUNNY     70  50  49 NE8       30.09
CLEMSON        NOT AVBL
GREENWOOD      SUNNY     70  50  49 E10       30.10


...................COASTAL AND OFFSHORE REPORTS..................

................LOCAL PIERS AND NC RESERVE................


STATION/POSITION TIME  SKY/WX   TEMP    WIND        PRES    VSBY
                                AIR SEA DIR/SP/G
                 (UTC)          (F)     (DEG/KT/KT) (MB)    (MI)
JOHNY MRCER PIER 1448            62 59   40/ 16/ 17 1016.2R
NC RESRV MASNBRO 1345            68      60/  6     1015.0
OCEAN CREST PIER NOT AVBL
SPRINGMAID  PIER 1448                               1016.4R


................COASTAL AND OFFSHORE BUOYS................


STATION/POSITION TIME  SKY/WX   TEMP    WIND        PRES    VSBY
                                AIR SEA DIR/SP/G
                 (UTC)          (F)     (DEG/KT/KT) (MB)    (MI)
DIMNDSHOAL 41025 1450            55 73   20/ 21/ 25 1016.9R
WVE H/P(F/S)=  6/10 SWL H/P/D(F/S/D)=  3/150/10

CAPE LOOKOUT     1500            59      30/ 19/ 21 1017.6R
ONSLOW BAY 41036 NOT AVBL
ONSLOW BAY 41064 1408            63      50/ 14/ 19 1016.4
ONSLOW BAY 41159 1443               64                N/A
WVE H/P(F/S)=  5/10 SWL H/P/D(F/S/D)=  2/140/11

MASNBO INL 41110 1429               59                N/A
WVE H/P(F/S)=  3/11 SWL H/P/D(F/S/D)=  2/130/11

WILM HARBR 41108 1447               60                N/A
WVE H/P(F/S)=  3/11 SWL H/P/D(F/S/D)=  2/140/11

27SE WRITB 41037 1408            65 72   50/ 14/ 19 1015.5
FRYING PAN 41013 1450            68 74   10/ 12/ 16 1016.3R
WVE H/P(F/S)=  4/10 SWL H/P/D(F/S/D)=  3/130/10

SUNST NRSH 41024 NOT AVBL
CAPRS NRSH 41029 NOT AVBL
EDISTO     41004 1450            70 70   40/  8/ 10 1016.1R
WVE H/P(F/S)=  5/10 SWL H/P/D(F/S/D)=  5/110/10



..........OFFSHORE BUOYS BEYOND 100 NM OFFSHORE...........
.....IN A TRIANGLE---HAT TO BERMUDA TO BAHAMAS TO HAT.....


STATION/POSITION TIME  SKY/WX   TEMP    WIND        PRES    VSBY
                                AIR SEA DIR/SP/G
                 (UTC)          (F)     (DEG/KT/KT) (MB)    (MI)
150E HAT   41001 NOT AVBL
W BERMUDA  41048 1450            67 69  230/  8/ 12 1014.8S
WVE H/P(F/S)=  6/10 SWL H/P/D(F/S/D)=  7/100/10

ATLANTIC S 41049 1450            69 72  350/ 16/ 19 1012.9R
WVE H/P(F/S)= 10/ 9 SWL H/P/D(F/S/D)=  8/ 30/ 9

E BAHAMAS  41046 NOT AVBL
NE BAHAMAS 41047 1450            70 72  310/  8/ 12 1017.5R
WVE H/P(F/S)=  6/10 SWL H/P/D(F/S/D)=  7/ 90/10

120E CANVRL41010 NOT AVBL

END




USA.gov is the U.S. government's official web portal to all federal, state and local government web resources and services.